Location: Unspecified
(50.1700°N, 6.8600°E)
Time: 17:56:38
(UTC+00:00)

Lacrosse 5 rocket - Pass Details

Date: 24 January 2019
Orbit: 458 x 640 km, 57.0° (Epoch: 20 April)

Event Time Altitude Azimuth Distance (km) Brightness Sun altitude
Exits shadow 04:06:57 34° 100° (E) 992 3.0 -30.2°
Drops below altitude 10° 04:10:02 10° 66° (ENE) 1,962 4.9 -29.7°
Sets 04:12:29 0° 59° (ENE) 2,895 5.9 -29.3°
